Terminal Aerodrome Forecast
Issued by NWS

Current Version | Previous Version | Text Only | Print | Product List | Glossary Off
Versions: 1 2 3 4 5 6 7 8 9 10 11 12 13 14 15 16 17

000
FTUS41 KILN 271900 AAA
TAFLCK
TAF AMD
KLCK 271900Z 2719/2818 19012G20KT P6SM SCT045 BKN200
     FM272300 20009KT P6SM BKN200
     FM281100 21012KT P6SM SCT040 BKN200
     FM281600 22012G22KT P6SM -SHRA VCTS OVC025CB=

USA.gov is the U.S. government's official web portal to all federal, state and local government web resources and services.